Theta_e
322 317 316 317 318 320 321 321 322 325 324 322 322 339 339 340 341 343 344 344 345 345 345 344 345 344 343 342 341 342 346 348 347 346 345 342 337 337 332 327 325 319 317 318
320 317 319 320 321 321 321 321 322 327 326 325 326 327 333 336 335 342 342 344 344 344 342 342 341 339 337 334 332 333 341 343 343 341 340 338 337 334 329 327 323 319 316 314
319 321 323 322 321 322 322 324 323 324 328 327 329 326 323 333 334 335 340 343 344 343 341 339 338 336 335 331 326 326 337 336 324 326 328 333 330 329 326 323 317 318 316 314
321 323 323 323 323 323 322 323 324 323 327 327 327 323 323 329 332 330 332 342 342 341 339 338 336 334 332 330 325 320 326 327 326 328 330 331 328 323 320 319 320 319 319 316
324 323 324 325 325 324 321 323 326 324 326 325 324 323 324 327 329 330 330 341 341 340 339 336 334 332 330 329 324 319 319 319 317 319 320 318 317 318 317 320 321 319 318 317
324 326 325 324 324 324 325 325 326 325 321 322 322 324 323 322 329 332 333 341 341 339 338 335 333 330 328 327 321 320 317 317 317 316 317 317 316 314 315 317 320 319 318 318
324 324 326 326 326 325 323 321 321 323 322 323 322 323 323 333 331 332 334 338 339 338 336 334 332 328 326 327 323 318 317 317 316 315 315 315 315 314 315 316 318 320 318 318
324 323 324 325 325 325 325 321 320 325 326 325 325 328 331 328 329 329 335 336 337 336 334 333 331 328 326 326 325 319 319 318 318 316 316 318 319 320 316 315 319 319 318 319
325 326 326 325 325 324 323 324 322 326 326 323 324 331 332 330 329 330 330 334 336 335 333 332 330 328 326 325 325 322 322 322 321 319 317 318 321 321 319 320 322 321 319 319
326 327 328 326 325 325 325 325 322 323 327 328 326 327 333 332 331 329 329 330 337 335 332 331 330 329 327 325 325 324 324 325 324 322 322 321 320 320 321 321 320 322 322 322
325 327 327 329 326 326 325 324 323 321 325 326 328 329 329 331 331 329 330 331 335 334 332 331 330 329 327 327 326 325 325 325 324 324 324 324 322 322 322 323 322 322 321 320
325 326 326 328 327 327 325 325 323 323 324 325 324 325 329 327 328 332 332 332 331 331 331 330 330 328 328 328 327 327 324 325 325 324 324 324 324 323 323 323 322 321 321 320
330 327 328 326 324 326 328 328 327 328 328 327 328 327 329 329 328 331 331 332 331 330 329 329 328 328 329 328 327 327 325 326 326 325 324 324 324 323 323 322 321 320 317 314
328 330 328 325 326 327 330 329 329 328 328 325 325 325 326 327 327 327 327 328 330 330 329 329 329 329 329 329 329 329 326 326 326 325 324 324 323 323 322 320 318 314 311 311
325 327 330 330 329 327 327 327 326 328 328 330 327 326 325 325 326 329 328 328 329 331 330 330 330 330 329 329 328 327 326 326 326 323 322 322 321 320 318 314 312 311 311 311
329 327 328 329 328 327 327 326 325 325 326 328 328 326 323 327 328 329 328 328 328 332 331 331 331 330 329 329 328 328 325 324 323 323 323 321 316 314 313 312 311 312 309 308
331 328 330 329 329 328 328 326 326 326 325 327 325 323 324 323 326 327 328 329 332 331 331 331 330 330 329 328 326 326 325 325 324 321 317 315 313 313 312 310 310 309 307 306
330 331 330 331 332 333 327 327 326 327 326 326 326 326 324 323 327 327 327 330 330 329 328 327 326 326 327 327 326 326 322 318 317 316 315 313 312 311 310 309 308 306 304 304
326 332 332 332 331 330 330 327 326 326 325 326 326 326 325 325 326 328 328 329 328 328 326 326 325 324 324 322 321 319 318 318 316 314 312 311 311 310 309 307 306 305 304 305
325 327 330 331 333 333 329 328 328 326 325 326 326 326 324 326 322 325 328 327 327 326 326 324 323 323 322 320 319 318 317 315 313 312 311 310 310 308 306 305 304 305 305 304
323 326 326 327 329 330 328 327 326 326 325 327 325 324 324 324 325 327 326 326 325 325 323 322 322 321 321 320 318 316 315 313 312 311 310 309 306 305 306 305 305 305 303 302
322 325 329 328 328 330 328 326 329 327 330 326 325 325 327 327 327 327 326 325 324 323 323 322 322 320 319 318 315 315 313 311 311 310 309 306 305 305 305 303 304 303 300 298
326 327 330 328 327 326 326 326 325 325 325 329 325 327 327 328 327 326 325 324 323 322 321 321 320 319 317 314 315 313 312 310 309 309 307 306 306 304 303 304 302 301 300 300
325 327 329 328 327 328 328 326 326 325 325 327 327 325 326 327 326 326 325 324 323 321 320 318 318 317 314 314 313 312 311 310 309 307 306 307 305 304 303 303 302 302 302 301
322 322 326 327 327 328 323 325 324 323 324 325 324 326 327 327 326 325 324 323 322 320 319 317 316 315 313 311 311 309 307 307 307 306 306 306 305 304 305 304 304 303 303 302
320 321 326 327 325 326 325 324 321 320 321 322 325 322 328 327 326 325 323 322 321 320 317 315 315 314 311 310 309 308 308 307 306 306 305 305 305 304 305 304 304 303 303 304
Wind_Speed
14 2 6 13 11 11 7 7 9 2 6 7 8 17 17 26 28 28 32 33 29 26 23 15 11 10 9 8 11 10 14 13 12 12 9 6 5 2 5 6 9 11 11 11
6 9 13 11 11 11 10 8 6 3 7 6 5 3 10 18 21 34 33 36 37 33 25 20 13 9 7 8 10 13 15 13 12 9 10 10 6 6 5 9 14 13 15 14
9 12 15 13 10 10 6 3 7 3 4 4 4 4 7 12 27 28 35 39 43 37 30 21 16 12 7 7 8 13 15 12 14 16 17 15 13 9 2 8 10 13 15 16
8 20 11 5 3 5 5 7 8 10 2 2 5 4 7 9 13 12 22 33 39 35 28 25 20 13 10 8 8 13 15 13 12 12 13 11 9 5 2 6 9 12 15 18
10 8 5 1 5 7 9 7 4 9 1 4 9 3 9 5 7 10 18 32 40 35 32 28 23 18 14 11 11 13 14 14 14 14 11 8 7 7 6 10 6 9 13 16
14 16 4 7 7 4 4 6 7 6 4 4 8 4 11 6 9 8 15 36 40 39 33 28 23 21 17 12 13 15 16 16 15 14 13 8 7 8 8 9 7 3 9 12
9 7 3 4 3 4 8 7 4 4 3 7 10 4 16 1 9 5 15 32 39 40 35 32 30 25 20 18 13 17 17 16 14 13 13 11 10 9 6 7 8 4 4 10
5 8 9 8 7 5 4 8 5 5 3 4 8 5 2 9 20 22 13 25 36 39 36 34 33 27 25 21 14 17 16 14 12 11 11 10 9 8 6 3 4 3 2 6
3 7 13 11 6 4 6 3 9 1 4 4 3 3 7 9 9 15 15 19 33 32 34 34 31 27 26 22 17 15 13 11 8 7 7 7 7 5 1 5 2 3 7 9
7 3 5 5 6 2 3 1 5 4 1 4 5 4 4 6 7 8 10 9 24 32 35 35 32 27 27 24 19 14 12 10 8 5 4 6 7 6 2 4 6 8 9 11
4 6 9 5 2 4 4 2 1 4 4 3 1 5 6 6 8 10 14 18 23 30 33 35 32 30 30 29 26 21 17 16 13 8 5 4 1 1 2 6 5 7 12 16
9 6 4 7 6 4 9 10 8 5 7 3 5 6 3 8 11 18 15 18 21 21 23 29 32 33 33 29 23 17 20 18 12 8 9 8 7 9 9 9 10 12 16 19
3 2 2 8 7 6 3 4 5 4 4 5 4 6 4 8 7 14 15 18 23 24 23 23 31 35 30 26 25 21 20 17 14 14 13 13 15 14 13 12 12 14 16 14
6 2 6 7 8 6 4 6 3 2 3 5 7 8 7 6 8 11 13 9 10 24 25 21 33 32 28 25 25 25 21 24 21 23 23 20 16 12 11 9 10 10 13 15
6 4 2 5 7 10 13 11 10 12 10 9 10 9 8 7 8 17 21 18 14 23 22 19 27 28 24 22 24 26 20 17 16 19 16 15 11 8 4 7 12 13 12 13
0 4 6 5 8 12 17 17 15 19 13 11 16 10 10 16 6 11 22 22 18 30 28 25 22 19 22 22 22 18 18 16 12 10 7 2 2 7 8 9 9 9 14 18
3 4 2 5 7 11 17 13 15 17 11 3 4 5 4 7 2 17 18 21 36 35 32 33 31 27 25 24 23 20 16 12 6 3 5 6 3 2 6 7 11 12 16 18
5 5 5 4 4 14 5 4 7 8 10 5 4 1 2 4 10 17 20 32 38 35 33 31 28 25 23 21 17 14 11 10 8 8 8 4 4 3 8 10 15 19 17 15
6 5 4 6 8 17 10 4 6 4 14 6 2 2 5 14 15 12 20 30 35 33 30 32 30 27 24 18 17 16 15 12 11 9 8 3 2 5 8 14 12 14 15 13
9 5 4 3 6 20 2 7 12 7 12 5 7 4 9 11 5 4 32 36 34 31 33 35 31 27 22 21 16 10 9 10 11 7 5 3 5 8 11 12 10 10 9 10
4 6 10 10 7 13 4 0 12 8 7 4 4 1 4 4 10 35 39 37 36 35 33 30 26 22 17 17 13 13 11 12 7 5 4 2 7 5 7 9 7 9 9 12
9 4 6 2 3 15 4 6 5 2 15 11 11 8 17 25 37 43 42 39 36 32 28 23 23 20 16 13 14 14 14 11 7 6 3 2 4 5 4 8 8 7 12 12
11 6 5 10 9 12 22 15 29 14 12 17 11 13 25 37 42 42 40 37 34 28 27 24 22 17 13 16 14 14 11 8 8 5 1 1 2 5 5 5 7 6 12 18
6 10 1 3 5 8 16 23 14 16 9 9 17 10 28 40 44 42 40 37 34 28 25 21 17 13 15 15 13 13 12 10 7 5 1 4 1 3 6 3 2 6 9 11
5 9 5 4 5 7 14 16 8 6 10 4 7 24 22 42 41 44 41 38 34 32 25 17 14 18 19 13 10 8 7 6 6 6 3 6 5 1 1 2 5 7 10 10
6 3 2 4 7 8 9 9 11 12 13 14 12 4 18 34 40 42 38 35 35 31 26 22 21 19 13 11 11 11 9 6 4 8 8 6 8 3 3 2 4 6 8 12
Wind_Direction
250 195 238 241 246 243 269 279 270 356 116 135 153 146 172 173 164 162 166 160 160 165 162 166 169 193 196 183 178 167 163 167 180 181 181 144 109 59 29 2 12 7 5 360
298 224 237 237 250 254 267 276 291 39 117 107 95 135 197 178 177 173 171 165 162 155 157 168 182 201 201 182 174 162 165 170 173 181 157 136 109 80 19 12 12 23 18 18
215 244 229 242 258 261 270 298 298 240 125 94 118 311 264 188 187 185 180 170 167 165 159 162 165 180 208 193 178 167 168 166 143 135 130 146 138 136 63 357 18 25 19 20
233 246 263 152 316 347 321 292 317 288 62 211 118 259 275 199 193 183 181 155 159 159 163 165 172 179 195 201 179 163 165 165 151 140 147 157 164 187 137 61 40 20 12 17
261 250 174 153 263 262 249 255 328 256 178 55 305 86 263 245 189 190 176 151 160 166 166 167 173 179 190 207 191 166 157 153 143 150 154 148 140 116 110 93 73 7 358 6
288 277 223 182 235 223 78 42 358 18 61 6 254 195 277 247 195 155 161 149 161 166 166 167 172 174 180 199 183 169 159 153 146 145 147 145 105 100 110 124 110 10 342 355
286 263 294 291 2 112 84 57 353 348 355 229 263 238 237 175 104 149 166 151 157 164 163 163 170 173 179 189 190 172 165 157 149 139 131 129 131 139 118 117 157 170 317 345
266 292 197 201 177 182 182 150 161 223 225 257 337 291 289 88 71 62 158 171 151 162 165 170 172 173 180 192 197 185 176 168 154 142 138 135 126 136 150 158 153 149 296 336
277 290 321 188 135 151 263 176 211 180 274 39 247 21 27 73 80 83 77 110 151 164 170 172 173 175 182 194 206 203 192 179 169 151 146 154 158 188 176 134 105 317 338 353
231 313 316 114 136 188 107 247 22 357 162 280 283 285 178 115 130 121 127 139 167 170 175 176 176 180 185 196 198 206 211 195 193 183 161 149 176 203 302 357 353 355 342 325
153 119 285 14 133 167 324 285 241 152 147 174 314 280 200 161 167 162 171 171 162 166 175 179 182 185 186 193 199 207 206 215 208 206 196 214 286 105 298 309 298 309 315 310
185 152 221 228 287 308 204 205 179 138 274 226 180 258 146 155 171 163 172 169 176 178 177 188 186 183 186 193 201 214 208 214 211 218 215 219 214 209 236 260 283 288 299 307
7 164 131 330 340 331 241 231 203 163 130 199 195 256 225 170 138 168 179 180 187 190 189 193 187 185 186 190 195 194 191 206 229 216 201 188 192 208 225 253 274 296 309 317
71 30 152 192 211 229 275 266 297 196 152 235 232 249 273 237 186 196 166 172 158 192 191 190 174 176 183 185 180 191 187 203 199 203 198 200 204 216 241 263 298 321 334 331
118 186 270 266 271 277 274 272 268 238 219 233 255 245 233 241 220 214 186 176 156 156 159 154 149 158 164 166 162 166 184 200 189 177 179 184 196 226 272 332 346 337 347 342
258 230 199 257 268 273 274 283 284 283 278 227 235 246 243 256 280 218 180 179 146 118 116 122 123 137 147 153 164 172 160 174 178 187 191 186 359 9 4 339 334 336 325 326
201 166 179 249 234 263 257 235 252 272 278 251 265 247 59 21 147 140 132 134 121 125 127 121 118 123 124 134 147 151 154 159 177 170 114 115 68 313 326 323 322 327 332 332
209 187 176 220 235 253 211 217 275 269 280 240 257 247 61 30 117 135 144 140 129 131 131 129 128 126 132 138 139 153 153 141 137 122 136 163 255 299 309 310 324 328 339 338
185 193 214 215 225 256 262 279 236 232 282 249 181 66 89 121 117 103 150 151 144 142 140 139 142 139 139 140 133 139 135 156 154 153 155 175 226 294 305 327 327 333 342 345
268 187 191 239 218 248 89 239 282 342 277 197 226 212 177 158 145 184 145 146 143 146 148 147 149 153 150 143 146 140 156 165 157 168 203 258 293 319 330 335 347 5 16 33
290 268 243 249 258 261 160 236 303 260 252 115 104 68 321 169 187 150 145 144 146 147 146 147 151 152 158 160 161 157 158 152 174 219 233 263 337 9 347 355 51 38 26 350
243 227 227 51 336 263 17 49 158 226 305 191 169 164 133 137 141 144 146 142 142 143 146 156 156 152 158 164 164 177 170 165 194 208 211 359 14 357 4 77 60 47 19 39
258 201 207 194 236 232 265 266 290 293 309 314 195 166 153 146 144 146 146 144 141 142 145 153 158 156 159 159 172 183 175 193 200 218 255 128 46 16 116 75 42 49 25 46
324 22 236 97 321 316 308 274 268 276 284 279 329 226 178 153 150 147 148 146 146 152 148 149 150 169 165 180 191 209 197 208 219 198 183 149 266 34 103 123 75 339 347 17
256 352 321 270 298 323 330 340 14 335 256 311 247 343 171 153 155 157 154 153 155 159 158 167 172 177 175 188 187 201 215 211 209 204 178 170 192 90 183 278 356 344 348 334
190 220 195 229 309 228 254 272 319 316 301 280 202 172 194 178 157 160 158 164 165 162 163 165 175 171 166 174 161 165 184 212 208 172 159 178 184 220 292 273 280 321 334 346